Terminal Aerodrome Forecast
Issued by NWS Jacksonville, FL

Home | Current Version | Previous Version | Text Only | Print | Product List | Glossary On
Versions: 1 2 3 4 5 6 7 8 9 10 11 12 13 14 15 16 17 18 19 20 21 22 23
000
FTUS42 KJAX 030216 AAB
TAFSSI
TAF AMD
KSSI 030216Z 0302/0324 19007KT P6SM SCT015 BKN050
      TEMPO 0302/0306 BKN015
     FM030900 21005KT P6SM BKN015
     FM031400 25010KT P6SM SCT035 BKN050
     FM031800 22012KT P6SM VCTS BKN040CB=

USA.gov is the U.S. government's official web portal to all federal, state and local government web resources and services.